SCP
0 -0 0 0 0 0 0 -0 -0 -0 -0 -0 -0 -0 -0 -0 -0 -0 -0 -0 -0 -0 -0 -0 -0 -0 -0 -0 0 0 0 0 0 0 0 0 0 0 0 0 -0 -0 0 0 0 0 0 0 0
-0 0 0 0 -0 -0 -0 -0 -0 -0 -0 -0 -0 -0 -0 -0 -0 -0 -0 -0 -0 -0 -0 -0 -0 0 -0 -0 0 0 0 0 0 0 0 0 0 -0 -0 -0 -0 0 0 -0 -0 0 -0 0 0
-0 0 -0 0 0 -0 -0 -0 -0 -0 -0 -0 -0 -0 -0 -0 -0 -0 -0 -0 -0 -0 -0 -0 -0 -0 -0 -0 0 0 0 0 0 0 0 0 0 -0 -0 0 0 -0 -0 0 0 -0 -0 0 0
-0 0 0 0 -0 -0 -0 -0 -0 -0 -0 -0 -0 -0 -0 -0 -0 -0 0 -0 -0 -0 -0 0 -0 -0 -0 0 0 0 0 0 0 0 0 0 0 0 0 0 0 0 0 0 0 0 0 0 0
-0 -0 -0 0 -0 -0 -0 0 -0 -0 -0 -0 -0 -0 -0 -0 -0 -0 -0 -0 -0 -0 0 0 -0 -0 0 0 0 0 0 0 0 0 0 0 0 0 0 0 0 0 0 0 0 0 0 0 0
0 0 0 -0 -0 -0 -0 0 0 -0 -0 -0 -0 -0 -0 -0 -0 -0 -0 -0 -0 -0 -0 0 0 0 0 -0 0 0 0 0 0 0 0 0 0 0 0 0 0 0 0 0 0 0 0 0 0
-0 0 -0 -0 -0 -0 -0 0 -0 -0 -0 -0 -0 -0 -0 -0 -0 0 -0 -0 -0 0 -0 0 0 0 -0 0 0 0 0 0 0 0 0 0 0 0 0 0 0 0 0 0 0 0 0 0 0
0 -0 0 0 -0 -0 -0 -0 0 0 -0 0 -0 -0 -0 -0 0 0 -0 -0 -0 -0 -0 0 0 0 0 -0 0 0 0 0 0 0 0 0 0 0 0 0 0 0 0 0 0 0 0 0 0
0 -0 -0 0 0 -0 -0 -0 -0 -0 -0 0 0 -0 -0 0 0 0 -0 -0 -0 -0 0 0 0 0 0 -0 0 0 0 -0 0 0 0 0 0 0 0 0 0 0 0 0 0 0 0 0 0
0 -0 -0 -0 -0 -0 -0 -0 -0 -0 -0 -0 -0 -0 -0 0 0 0 -0 -0 -0 -0 -0 -0 -0 0 -0 0 -0 -0 -0 0 0 0 0 0 0 0 0 0 0 0 0 0 0 0 0 -0 0
0 0 0 0 0 0 -0 -0 -0 -0 -0 -0 -0 -0 -0 -0 0 0 -0 -0 0 -0 0 -0 -0 -0 -0 -0 -0 -0 0 0 0 1 1 0 0 0 0 0 0 0 0 1 0 0 0 0 0
-0 0 0 0 0 0 0 -0 -0 -0 -0 -0 -0 -0 -0 -0 -0 -0 0 -0 -0 -0 0 0 0 -0 0 0 0 0 0 0 0 0 0 0 0 1 1 0 0 1 0 0 0 0 0 0 0
-0 0 0 0 0 0 0 0 0 -0 -0 -0 -0 -0 -0 -0 0 0 0 -0 0 0 0 -0 0 0 0 0 0 0 0 0 0 0 0 0 0 0 0 0 0 1 -0 -0 0 0 0 0 0
-0 0 0 0 0 0 0 0 0 -0 -0 -0 -0 -0 -0 -0 0 0 -0 -0 0 -0 0 0 -0 0 0 0 0 0 0 0 0 0 0 0 0 1 0 -0 -0 0 0 0 0 0 0 0 0
-0 -0 0 -0 0 0 0 0 0 0 -0 -0 -0 -0 -0 0 0 0 -0 0 0 0 0 -0 -0 -0 0 0 0 0 0 0 0 0 0 0 0 0 1 0 0 0 0 0 0 0 0 0 0
-0 0 0 -0 -0 0 0 0 0 0 0 -0 -0 -0 0 0 0 0 -0 -0 0 0 0 -0 -0 -0 0 0 0 0 0 0 0 0 -0 0 0 0 1 0 0 0 0 -0 0 0 0 0 0
0 -0 0 -0 -0 -0 -0 0 0 0 0 -0 -0 0 -0 0 0 0 0 -0 0 -0 0 -0 -0 -0 -0 0 0 0 0 0 0 0 0 0 0 0 0 0 0 0 0 0 -0 0 0 0 -0
0 0 -0 0 -0 -0 -0 -0 0 0 0 0 -0 -0 -0 -0 -0 0 -0 -0 0 -0 0 -0 -0 0 0 -0 0 0 0 0 0 0 0 0 0 0 0 0 0 0 0 0 0 0 0 -0 -0
0 0 -0 0 -0 -0 -0 -0 0 0 0 -0 0 -0 0 0 -0 -0 0 -0 -0 -0 0 0 0 0 0 -0 0 0 0 0 0 0 0 0 0 0 0 0 0 0 -0 -0 0 0 0 -0 -0
0 0 0 0 -0 -0 0 -0 -0 0 0 -0 -0 -0 0 -0 -0 0 -0 -0 -0 -0 -0 -0 -0 0 -0 0 0 0 0 0 0 0 0 0 0 0 0 0 0 0 0 0 0 0 -0 0 0
-0 0 0 0 0 -0 -0 0 -0 -0 -0 0 0 0 -0 -0 -0 0 -0 -0 0 0 -0 -0 -0 -0 0 0 0 0 0 0 0 0 0 0 0 0 0 0 0 0 0 0 0 0 -0 -0 0
0 0 0 0 -0 -0 0 -0 0 -0 0 -0 0 0 0 -0 -0 0 -0 -0 -0 0 0 0 -0 -0 0 0 0 0 0 0 0 0 0 0 0 0 0 0 0 0 0 0 0 0 -0 -0 -0
0 0 0 0 -0 -0 -0 -0 0 -0 -0 -0 0 -0 0 0 -0 0 0 0 0 -0 0 0 -0 -0 0 0 0 0 0 0 0 0 0 0 0 0 0 -0 0 0 0 0 0 0 -0 -0 -0
0 0 -0 -0 0 0 0 -0 -0 0 -0 0 0 -0 0 0 0 0 -0 0 0 0 0 0 0 -0 0 0 0 0 0 0 0 0 0 -0 -0 -0 0 -0 0 0 0 0 0 0 0 0 -0
-0 0 0 0 0 0 0 0 0 0 0 0 0 0 0 0 0 0 -0 0 0 0 0 0 0 0 -0 -0 -0 0 0 0 0 0 0 0 0 0 -0 0 0 0 0 0 0 0 0 0 0
0 0 0 0 0 0 0 0 0 0 -0 -0 -0 0 0 0 0 0 0 0 0 0 0 0 0 0 0 -0 0 0 0 0 0 0 0 0 0 0 -0 0 0 0 0 0 0 0 0 0 0
0 0 0 0 0 0 0 0 0 0 0 -0 -0 -0 0 0 0 0 0 -0 0 0 0 0 0 0 0 0 0 0 0 0 0 0 0 0 0 0 0 0 0 0 0 0 0 0 0 0 0
0 0 0 0 0 0 0 -0 0 0 0 0 -0 -0 0 0 0 0 0 0 0 0 0 0 0 0 0 0 0 0 0 0 0 0 0 0 0 0 0 0 0 0 0 0 0 0 0 0 0
0 0 0 0 0 0 0 0 0 0 0 0 0 0 0 -0 0 0 0 0 0 0 0 0 0 0 0 0 0 0 0 0 0 0 0 0 0 0 0 0 0 0 0 0 0 0 0 0 0
0 0 0 0 0 0 0 0 0 0 0 0 0 0 0 -0 0 0 0 0 1 0 1 0 0 0 0 0 0 0 -0 0 0 0 0 0 0 0 0 0 0 0 0 0 0 -0 0 0 0
Wind_Speed_500mb
4 7 6 12 10 11 12 19 21 19 26 32 20 31 33 32 29 20 30 32 35 27 22 18 14 18 18 20 23 26 31 36 37 40 31 33 33 32 32 33 34 37 38 36 34 33 31 30 27
2 10 13 15 6 12 16 17 27 23 33 26 29 13 43 41 46 41 39 33 31 31 25 21 14 18 19 23 30 39 43 43 41 43 31 31 32 31 32 35 38 37 35 34 33 30 28 27 28
2 10 28 11 3 23 14 26 28 24 19 19 17 31 25 26 30 29 37 40 39 33 32 27 21 24 27 33 35 38 46 48 42 32 29 28 29 30 31 33 32 37 38 35 33 32 31 29 26
10 8 19 0 13 26 26 25 26 23 20 19 29 26 35 31 41 38 40 41 38 39 31 38 33 30 33 44 44 46 47 51 41 30 28 27 27 28 29 31 32 31 33 33 32 33 33 32 28
4 13 12 8 22 26 27 23 18 21 21 19 31 39 39 41 42 43 41 43 42 39 48 38 38 40 40 46 44 44 42 40 45 26 25 25 23 29 30 29 29 32 31 33 34 33 32 30 28
10 13 5 3 24 23 21 11 16 25 21 22 43 44 42 38 41 40 43 42 37 37 35 45 41 43 39 43 39 41 49 48 49 21 22 21 22 26 26 26 28 29 32 31 31 31 31 29 27
8 15 9 22 24 25 19 8 21 21 20 32 33 37 36 39 39 39 40 36 34 37 34 46 50 51 46 44 43 40 38 37 30 23 24 24 22 24 25 27 27 29 29 28 27 27 27 27 27
23 1 21 18 14 28 22 24 13 17 26 23 40 26 41 42 39 38 34 39 36 30 30 32 33 38 44 44 41 39 36 34 27 27 29 29 29 27 28 21 26 27 26 25 23 23 26 27 24
12 9 8 14 22 25 25 21 17 25 30 20 7 45 48 45 40 38 34 30 30 26 36 37 29 32 35 42 41 38 37 32 29 34 34 28 15 20 16 19 24 26 25 22 22 22 28 27 29
4 5 7 14 26 30 24 28 28 25 27 20 39 50 50 45 40 37 36 32 30 27 35 37 37 24 32 32 32 30 28 22 20 20 25 18 18 20 18 28 28 26 26 25 25 30 29 23 11
2 5 11 21 24 20 25 24 17 16 24 34 40 52 50 44 39 35 31 39 30 36 26 30 47 35 44 27 26 29 21 25 24 13 24 16 11 12 20 17 15 18 20 6 18 17 20 19 20
14 17 8 18 5 7 14 18 19 25 26 35 41 48 48 43 39 37 33 32 29 27 27 34 29 14 28 17 16 22 16 18 20 18 19 17 19 16 17 19 21 16 14 15 16 14 20 22 16
25 17 15 11 30 24 14 10 13 21 34 37 41 42 42 40 34 32 31 29 27 26 25 22 27 28 24 18 19 20 22 19 16 14 21 13 18 10 15 19 23 16 14 14 13 14 17 17 15
27 25 21 4 5 13 20 6 15 27 34 37 38 41 38 38 35 32 31 31 29 26 25 23 24 24 22 20 19 19 16 21 17 12 13 17 22 18 5 26 15 12 11 10 8 12 11 14 9
35 22 22 21 7 11 21 1 6 19 32 34 33 35 35 34 34 32 32 31 30 27 26 26 21 22 23 22 21 19 21 19 16 10 12 18 14 10 17 14 13 11 11 12 8 8 10 7 6
28 19 16 6 23 8 10 9 9 16 13 32 34 33 31 34 32 31 31 31 29 27 28 26 23 22 20 23 21 19 13 16 14 12 10 10 15 21 10 6 12 10 16 14 9 8 5 3 5
15 9 17 12 11 11 7 4 14 20 16 32 36 33 37 32 32 31 31 32 32 29 29 28 26 25 20 20 18 17 23 12 13 13 12 10 8 19 12 9 13 22 17 20 13 9 5 4 6
13 6 23 23 19 14 17 9 8 23 23 21 30 38 34 35 36 34 32 34 32 29 30 29 27 27 23 18 18 16 11 16 15 14 9 10 8 10 13 4 9 8 13 25 15 12 5 6 11
6 18 22 24 23 23 18 15 12 12 12 30 19 31 36 35 34 35 35 34 33 29 30 31 29 25 26 21 21 19 15 15 16 13 13 10 13 9 15 2 14 11 25 19 15 4 9 6 15
22 16 22 13 21 15 24 24 19 20 19 40 38 45 46 43 38 35 36 34 34 33 31 33 30 33 30 24 23 18 17 14 12 12 14 10 11 9 3 12 5 4 13 13 11 10 7 3 16
25 15 4 10 19 11 10 18 29 32 23 28 57 44 36 41 39 40 38 36 34 34 35 33 32 28 27 23 20 21 16 8 12 10 10 8 10 7 4 8 5 7 9 17 11 9 9 13 13
31 20 6 9 11 9 18 2 26 35 32 34 41 56 22 44 45 44 39 37 36 32 33 34 31 27 28 27 26 25 20 14 16 13 19 6 9 10 6 3 0 4 8 7 9 8 11 10 12
13 17 17 12 22 23 27 9 9 41 34 39 47 63 37 42 44 52 44 40 37 33 32 31 32 31 28 31 31 22 24 17 18 18 12 6 9 10 10 11 7 2 7 3 6 8 8 10 11
27 15 22 28 26 25 17 16 13 19 30 33 51 60 52 58 50 41 49 43 41 37 33 32 32 34 31 31 29 31 22 21 20 21 12 12 14 10 11 10 10 8 3 2 1 4 7 6 6
30 28 25 25 19 9 15 14 11 17 12 36 45 51 55 46 48 48 48 51 43 41 39 35 33 33 36 33 31 29 26 18 15 18 21 19 17 14 21 13 11 6 8 6 5 6 3 4 5
33 38 21 10 6 13 15 11 12 10 23 52 55 55 49 56 47 60 59 46 45 43 38 36 37 33 31 33 35 30 25 21 21 25 25 23 14 14 12 5 11 12 12 8 9 5 4 5 4
26 31 21 13 29 19 17 13 25 22 14 22 55 62 60 58 58 55 48 52 42 44 37 36 35 34 33 31 32 33 29 33 24 28 29 8 16 9 13 12 14 14 15 15 14 8 9 10 8
31 11 10 24 8 10 9 18 18 17 14 11 27 53 57 57 54 48 41 45 43 42 39 36 35 34 33 32 30 29 28 27 30 23 22 29 16 19 9 13 18 18 19 17 17 12 20 6 8
21 10 27 5 7 20 9 6 27 20 12 14 21 51 57 61 63 41 29 40 47 42 45 37 36 33 32 32 33 31 28 27 25 25 26 25 25 27 21 25 20 20 23 24 20 20 22 10 12
31 25 33 19 10 7 34 10 18 25 14 13 3 27 63 48 33 25 20 36 42 49 41 39 37 35 31 31 33 33 31 28 28 29 28 28 24 22 24 25 20 23 20 20 20 21 20 18 16
Wind_Direction_500mb
15 19 284 247 256 213 57 114 91 85 74 64 59 67 66 36 35 89 121 110 114 116 110 120 133 128 123 123 120 114 122 124 119 106 102 105 103 105 108 108 106 104 102 101 99 99 98 102 105
343 261 264 270 337 16 88 103 106 81 82 99 65 52 72 75 85 109 112 120 116 108 109 107 117 142 149 120 127 123 122 115 114 108 104 104 104 111 109 107 108 106 104 101 95 95 97 98 94
138 248 265 254 162 82 84 83 90 95 122 105 94 53 64 85 98 114 121 116 113 105 103 84 117 121 136 130 129 131 128 122 112 109 106 104 105 111 109 110 108 107 104 99 93 90 91 96 99
277 250 251 188 92 71 90 86 100 131 64 68 115 91 80 83 110 117 122 118 108 107 103 88 100 126 119 137 125 120 122 123 111 106 99 100 102 113 114 113 110 108 103 96 91 90 87 86 89
273 266 268 178 105 70 69 81 134 104 86 107 99 98 96 103 114 116 120 119 116 109 94 107 105 114 112 129 122 118 121 129 113 96 102 101 107 120 117 114 114 111 103 99 94 90 87 86 86
252 281 175 274 108 94 83 82 58 79 76 105 110 105 109 118 120 124 124 125 122 119 108 103 109 115 118 114 115 112 112 115 105 106 103 103 114 119 123 120 117 110 106 101 94 90 88 84 86
138 251 339 243 116 114 96 85 64 110 122 125 124 122 131 130 127 127 126 124 130 118 123 111 107 111 112 103 108 109 110 113 109 109 105 105 105 112 118 121 117 111 109 100 93 87 82 78 81
241 316 248 119 137 109 107 93 77 99 81 119 123 133 147 136 138 131 128 125 109 124 125 133 118 105 111 104 97 104 111 102 108 108 95 93 89 97 98 107 115 113 104 93 89 86 81 76 75
206 247 359 108 134 123 116 105 85 113 128 132 110 144 140 146 143 137 128 116 127 137 129 130 121 105 105 106 94 89 94 98 98 101 88 88 81 83 94 136 115 104 99 93 83 79 84 75 64
144 257 31 31 154 125 132 104 131 132 124 121 127 129 143 147 150 145 139 140 136 136 145 135 133 117 120 104 106 95 102 90 111 120 102 114 126 122 113 99 98 98 87 73 78 75 64 55 66
299 79 344 41 20 147 135 129 141 158 125 147 137 145 150 152 154 150 148 144 149 129 127 110 145 152 125 105 107 106 112 137 125 120 100 121 113 101 102 85 73 79 44 56 45 28 59 92 99
108 70 28 55 45 54 48 127 98 90 166 136 145 152 154 158 162 155 152 141 142 133 125 136 141 97 106 122 112 131 137 117 117 121 110 108 109 106 118 121 115 99 99 89 83 99 96 100 84
108 127 91 27 31 42 359 68 81 113 119 130 144 155 161 164 165 159 156 154 152 142 136 136 140 140 152 140 145 140 138 132 126 114 125 101 125 136 147 150 102 110 96 86 90 104 100 90 83
130 152 137 310 55 36 6 41 88 126 131 136 147 160 166 163 168 164 164 161 160 155 149 148 136 143 137 148 138 139 140 140 136 131 112 135 133 113 201 108 112 102 87 102 104 131 96 85 65
135 140 144 167 121 32 342 343 140 132 145 151 156 163 169 169 169 171 171 168 167 162 156 153 150 148 143 143 145 141 153 142 143 143 111 124 96 123 117 103 119 119 87 85 93 122 101 75 48
163 136 158 148 151 45 276 174 262 329 234 168 160 163 164 165 166 173 175 174 174 169 163 158 157 159 151 158 134 144 134 147 149 141 130 104 124 127 110 178 139 124 110 107 107 115 113 38 7
189 211 155 148 126 128 160 101 279 299 273 178 164 168 162 168 168 173 175 173 173 172 165 162 162 163 160 157 163 136 160 140 152 154 146 125 116 136 125 141 128 110 122 104 99 96 97 13 329
140 55 175 142 167 157 162 147 266 294 253 258 181 173 168 171 174 172 171 168 165 165 166 164 163 167 163 158 157 160 145 140 153 159 154 124 143 119 116 227 247 31 72 108 96 97 85 48 319
227 158 139 111 152 164 164 178 199 246 255 259 281 199 185 174 169 170 175 172 170 168 167 168 166 176 167 173 168 177 169 154 155 168 161 125 136 111 123 172 340 13 66 71 63 45 23 36 328
267 186 80 126 169 205 165 177 201 223 208 218 238 263 190 169 177 171 176 180 180 177 175 172 175 192 165 180 183 185 160 164 160 157 158 155 148 131 76 119 12 33 18 20 47 14 1 45 348
246 257 111 173 162 231 210 167 183 206 209 227 239 247 211 189 186 175 181 179 183 184 186 184 181 201 189 184 191 179 178 161 165 177 168 177 151 162 127 149 113 85 8 62 44 45 351 16 3
260 183 252 126 230 213 191 269 182 183 191 203 223 240 184 210 195 178 182 185 184 181 187 190 190 191 189 193 191 189 186 173 180 178 175 188 161 188 190 202 63 157 30 49 42 33 69 47 16
268 293 259 177 251 215 183 247 167 167 198 205 212 222 210 212 195 211 186 185 185 179 184 190 192 195 189 196 186 182 194 195 179 180 177 186 222 188 201 210 218 245 39 311 20 39 89 25 34
258 235 243 251 244 257 133 238 188 189 223 200 190 208 210 199 200 190 195 187 179 186 183 187 191 195 189 197 198 186 210 187 197 194 189 209 214 219 215 211 230 235 220 293 52 324 344 12 24
235 239 239 222 208 249 242 207 121 174 148 174 173 200 211 218 212 193 177 181 184 186 188 187 189 196 197 201 207 204 197 226 207 180 215 217 208 203 228 243 235 264 288 257 257 298 287 341 308
225 240 268 310 297 309 93 239 97 116 150 169 174 201 202 221 201 212 187 183 184 188 187 193 185 195 198 198 205 209 199 206 213 221 218 218 232 192 199 227 227 255 253 256 261 288 295 251 261
214 231 249 293 273 229 159 49 123 110 96 165 200 180 192 210 233 191 190 198 189 192 191 198 189 198 197 197 196 201 202 198 213 229 218 212 232 254 247 228 232 241 247 255 257 272 268 278 286
266 331 248 185 251 225 226 174 94 66 38 321 184 167 184 205 230 190 196 189 189 197 195 200 198 202 201 197 203 208 215 217 212 221 217 212 245 215 252 236 236 247 243 251 256 248 261 253 254
214 152 251 15 81 289 152 45 72 51 21 330 130 164 168 202 218 191 207 198 189 195 196 195 200 202 205 205 207 213 214 217 223 219 232 230 236 234 244 237 236 245 241 245 253 241 238 254 267
270 273 244 244 225 336 288 108 46 35 27 326 72 179 172 207 212 221 273 214 205 189 198 192 198 204 206 209 209 215 216 221 222 221 224 232 243 247 248 243 241 246 243 245 256 249 249 248 257
Wind_Speed_850mb
4 7 6 12 10 11 12 19 21 19 26 32 20 31 33 32 29 20 30 32 35 27 22 18 14 18 18 20 23 26 31 36 37 40 31 33 33 32 32 33 34 37 38 36 34 33 31 30 27
2 10 13 15 6 12 16 17 27 23 33 26 29 13 43 41 46 41 39 33 31 31 25 21 14 18 19 23 30 39 43 43 41 43 31 31 32 31 32 35 38 37 35 34 33 30 28 27 28
2 10 28 11 3 23 14 26 28 24 19 19 17 31 25 26 30 29 37 40 39 33 32 27 21 24 27 33 35 38 46 48 42 32 29 28 29 30 31 33 32 37 38 35 33 32 31 29 26
10 8 19 0 13 26 26 25 26 23 20 19 29 26 35 31 41 38 40 41 38 39 31 38 33 30 33 44 44 46 47 51 41 30 28 27 27 28 29 31 32 31 33 33 32 33 33 32 28
4 13 12 8 22 26 27 23 18 21 21 19 31 39 39 41 42 43 41 43 42 39 48 38 38 40 40 46 44 44 42 40 45 26 25 25 23 29 30 29 29 32 31 33 34 33 32 30 28
10 13 5 3 24 23 21 11 16 25 21 22 43 44 42 38 41 40 43 42 37 37 35 45 41 43 39 43 39 41 49 48 49 21 22 21 22 26 26 26 28 29 32 31 31 31 31 29 27
8 15 9 22 24 25 19 8 21 21 20 32 33 37 36 39 39 39 40 36 34 37 34 46 50 51 46 44 43 40 38 37 30 23 24 24 22 24 25 27 27 29 29 28 27 27 27 27 27
23 1 21 18 14 28 22 24 13 17 26 23 40 26 41 42 39 38 34 39 36 30 30 32 33 38 44 44 41 39 36 34 27 27 29 29 29 27 28 21 26 27 26 25 23 23 26 27 24
12 9 8 14 22 25 25 21 17 25 30 20 7 45 48 45 40 38 34 30 30 26 36 37 29 32 35 42 41 38 37 32 29 34 34 28 15 20 16 19 24 26 25 22 22 22 28 27 29
4 5 7 14 26 30 24 28 28 25 27 20 39 50 50 45 40 37 36 32 30 27 35 37 37 24 32 32 32 30 28 22 20 20 25 18 18 20 18 28 28 26 26 25 25 30 29 23 11
2 5 11 21 24 20 25 24 17 16 24 34 40 52 50 44 39 35 31 39 30 36 26 30 47 35 44 27 26 29 21 25 24 13 24 16 11 12 20 17 15 18 20 6 18 17 20 19 20
14 17 8 18 5 7 14 18 19 25 26 35 41 48 48 43 39 37 33 32 29 27 27 34 29 14 28 17 16 22 16 18 20 18 19 17 19 16 17 19 21 16 14 15 16 14 20 22 16
25 17 15 11 30 24 14 10 13 21 34 37 41 42 42 40 34 32 31 29 27 26 25 22 27 28 24 18 19 20 22 19 16 14 21 13 18 10 15 19 23 16 14 14 13 14 17 17 15
27 25 21 4 5 13 20 6 15 27 34 37 38 41 38 38 35 32 31 31 29 26 25 23 24 24 22 20 19 19 16 21 17 12 13 17 22 18 5 26 15 12 11 10 8 12 11 14 9
35 22 22 21 7 11 21 1 6 19 32 34 33 35 35 34 34 32 32 31 30 27 26 26 21 22 23 22 21 19 21 19 16 10 12 18 14 10 17 14 13 11 11 12 8 8 10 7 6
28 19 16 6 23 8 10 9 9 16 13 32 34 33 31 34 32 31 31 31 29 27 28 26 23 22 20 23 21 19 13 16 14 12 10 10 15 21 10 6 12 10 16 14 9 8 5 3 5
15 9 17 12 11 11 7 4 14 20 16 32 36 33 37 32 32 31 31 32 32 29 29 28 26 25 20 20 18 17 23 12 13 13 12 10 8 19 12 9 13 22 17 20 13 9 5 4 6
13 6 23 23 19 14 17 9 8 23 23 21 30 38 34 35 36 34 32 34 32 29 30 29 27 27 23 18 18 16 11 16 15 14 9 10 8 10 13 4 9 8 13 25 15 12 5 6 11
6 18 22 24 23 23 18 15 12 12 12 30 19 31 36 35 34 35 35 34 33 29 30 31 29 25 26 21 21 19 15 15 16 13 13 10 13 9 15 2 14 11 25 19 15 4 9 6 15
22 16 22 13 21 15 24 24 19 20 19 40 38 45 46 43 38 35 36 34 34 33 31 33 30 33 30 24 23 18 17 14 12 12 14 10 11 9 3 12 5 4 13 13 11 10 7 3 16
25 15 4 10 19 11 10 18 29 32 23 28 57 44 36 41 39 40 38 36 34 34 35 33 32 28 27 23 20 21 16 8 12 10 10 8 10 7 4 8 5 7 9 17 11 9 9 13 13
31 20 6 9 11 9 18 2 26 35 32 34 41 56 22 44 45 44 39 37 36 32 33 34 31 27 28 27 26 25 20 14 16 13 19 6 9 10 6 3 0 4 8 7 9 8 11 10 12
13 17 17 12 22 23 27 9 9 41 34 39 47 63 37 42 44 52 44 40 37 33 32 31 32 31 28 31 31 22 24 17 18 18 12 6 9 10 10 11 7 2 7 3 6 8 8 10 11
27 15 22 28 26 25 17 16 13 19 30 33 51 60 52 58 50 41 49 43 41 37 33 32 32 34 31 31 29 31 22 21 20 21 12 12 14 10 11 10 10 8 3 2 1 4 7 6 6
30 28 25 25 19 9 15 14 11 17 12 36 45 51 55 46 48 48 48 51 43 41 39 35 33 33 36 33 31 29 26 18 15 18 21 19 17 14 21 13 11 6 8 6 5 6 3 4 5
33 38 21 10 6 13 15 11 12 10 23 52 55 55 49 56 47 60 59 46 45 43 38 36 37 33 31 33 35 30 25 21 21 25 25 23 14 14 12 5 11 12 12 8 9 5 4 5 4
26 31 21 13 29 19 17 13 25 22 14 22 55 62 60 58 58 55 48 52 42 44 37 36 35 34 33 31 32 33 29 33 24 28 29 8 16 9 13 12 14 14 15 15 14 8 9 10 8
31 11 10 24 8 10 9 18 18 17 14 11 27 53 57 57 54 48 41 45 43 42 39 36 35 34 33 32 30 29 28 27 30 23 22 29 16 19 9 13 18 18 19 17 17 12 20 6 8
21 10 27 5 7 20 9 6 27 20 12 14 21 51 57 61 63 41 29 40 47 42 45 37 36 33 32 32 33 31 28 27 25 25 26 25 25 27 21 25 20 20 23 24 20 20 22 10 12
31 25 33 19 10 7 34 10 18 25 14 13 3 27 63 48 33 25 20 36 42 49 41 39 37 35 31 31 33 33 31 28 28 29 28 28 24 22 24 25 20 23 20 20 20 21 20 18 16
Wind_Direction_850mb
15 19 284 247 256 213 57 114 91 85 74 64 59 67 66 36 35 89 121 110 114 116 110 120 133 128 123 123 120 114 122 124 119 106 102 105 103 105 108 108 106 104 102 101 99 99 98 102 105
343 261 264 270 337 16 88 103 106 81 82 99 65 52 72 75 85 109 112 120 116 108 109 107 117 142 149 120 127 123 122 115 114 108 104 104 104 111 109 107 108 106 104 101 95 95 97 98 94
138 248 265 254 162 82 84 83 90 95 122 105 94 53 64 85 98 114 121 116 113 105 103 84 117 121 136 130 129 131 128 122 112 109 106 104 105 111 109 110 108 107 104 99 93 90 91 96 99
277 250 251 188 92 71 90 86 100 131 64 68 115 91 80 83 110 117 122 118 108 107 103 88 100 126 119 137 125 120 122 123 111 106 99 100 102 113 114 113 110 108 103 96 91 90 87 86 89
273 266 268 178 105 70 69 81 134 104 86 107 99 98 96 103 114 116 120 119 116 109 94 107 105 114 112 129 122 118 121 129 113 96 102 101 107 120 117 114 114 111 103 99 94 90 87 86 86
252 281 175 274 108 94 83 82 58 79 76 105 110 105 109 118 120 124 124 125 122 119 108 103 109 115 118 114 115 112 112 115 105 106 103 103 114 119 123 120 117 110 106 101 94 90 88 84 86
138 251 339 243 116 114 96 85 64 110 122 125 124 122 131 130 127 127 126 124 130 118 123 111 107 111 112 103 108 109 110 113 109 109 105 105 105 112 118 121 117 111 109 100 93 87 82 78 81
241 316 248 119 137 109 107 93 77 99 81 119 123 133 147 136 138 131 128 125 109 124 125 133 118 105 111 104 97 104 111 102 108 108 95 93 89 97 98 107 115 113 104 93 89 86 81 76 75
206 247 359 108 134 123 116 105 85 113 128 132 110 144 140 146 143 137 128 116 127 137 129 130 121 105 105 106 94 89 94 98 98 101 88 88 81 83 94 136 115 104 99 93 83 79 84 75 64
144 257 31 31 154 125 132 104 131 132 124 121 127 129 143 147 150 145 139 140 136 136 145 135 133 117 120 104 106 95 102 90 111 120 102 114 126 122 113 99 98 98 87 73 78 75 64 55 66
299 79 344 41 20 147 135 129 141 158 125 147 137 145 150 152 154 150 148 144 149 129 127 110 145 152 125 105 107 106 112 137 125 120 100 121 113 101 102 85 73 79 44 56 45 28 59 92 99
108 70 28 55 45 54 48 127 98 90 166 136 145 152 154 158 162 155 152 141 142 133 125 136 141 97 106 122 112 131 137 117 117 121 110 108 109 106 118 121 115 99 99 89 83 99 96 100 84
108 127 91 27 31 42 359 68 81 113 119 130 144 155 161 164 165 159 156 154 152 142 136 136 140 140 152 140 145 140 138 132 126 114 125 101 125 136 147 150 102 110 96 86 90 104 100 90 83
130 152 137 310 55 36 6 41 88 126 131 136 147 160 166 163 168 164 164 161 160 155 149 148 136 143 137 148 138 139 140 140 136 131 112 135 133 113 201 108 112 102 87 102 104 131 96 85 65
135 140 144 167 121 32 342 343 140 132 145 151 156 163 169 169 169 171 171 168 167 162 156 153 150 148 143 143 145 141 153 142 143 143 111 124 96 123 117 103 119 119 87 85 93 122 101 75 48
163 136 158 148 151 45 276 174 262 329 234 168 160 163 164 165 166 173 175 174 174 169 163 158 157 159 151 158 134 144 134 147 149 141 130 104 124 127 110 178 139 124 110 107 107 115 113 38 7
189 211 155 148 126 128 160 101 279 299 273 178 164 168 162 168 168 173 175 173 173 172 165 162 162 163 160 157 163 136 160 140 152 154 146 125 116 136 125 141 128 110 122 104 99 96 97 13 329
140 55 175 142 167 157 162 147 266 294 253 258 181 173 168 171 174 172 171 168 165 165 166 164 163 167 163 158 157 160 145 140 153 159 154 124 143 119 116 227 247 31 72 108 96 97 85 48 319
227 158 139 111 152 164 164 178 199 246 255 259 281 199 185 174 169 170 175 172 170 168 167 168 166 176 167 173 168 177 169 154 155 168 161 125 136 111 123 172 340 13 66 71 63 45 23 36 328
267 186 80 126 169 205 165 177 201 223 208 218 238 263 190 169 177 171 176 180 180 177 175 172 175 192 165 180 183 185 160 164 160 157 158 155 148 131 76 119 12 33 18 20 47 14 1 45 348
246 257 111 173 162 231 210 167 183 206 209 227 239 247 211 189 186 175 181 179 183 184 186 184 181 201 189 184 191 179 178 161 165 177 168 177 151 162 127 149 113 85 8 62 44 45 351 16 3
260 183 252 126 230 213 191 269 182 183 191 203 223 240 184 210 195 178 182 185 184 181 187 190 190 191 189 193 191 189 186 173 180 178 175 188 161 188 190 202 63 157 30 49 42 33 69 47 16
268 293 259 177 251 215 183 247 167 167 198 205 212 222 210 212 195 211 186 185 185 179 184 190 192 195 189 196 186 182 194 195 179 180 177 186 222 188 201 210 218 245 39 311 20 39 89 25 34
258 235 243 251 244 257 133 238 188 189 223 200 190 208 210 199 200 190 195 187 179 186 183 187 191 195 189 197 198 186 210 187 197 194 189 209 214 219 215 211 230 235 220 293 52 324 344 12 24
235 239 239 222 208 249 242 207 121 174 148 174 173 200 211 218 212 193 177 181 184 186 188 187 189 196 197 201 207 204 197 226 207 180 215 217 208 203 228 243 235 264 288 257 257 298 287 341 308
225 240 268 310 297 309 93 239 97 116 150 169 174 201 202 221 201 212 187 183 184 188 187 193 185 195 198 198 205 209 199 206 213 221 218 218 232 192 199 227 227 255 253 256 261 288 295 251 261
214 231 249 293 273 229 159 49 123 110 96 165 200 180 192 210 233 191 190 198 189 192 191 198 189 198 197 197 196 201 202 198 213 229 218 212 232 254 247 228 232 241 247 255 257 272 268 278 286
266 331 248 185 251 225 226 174 94 66 38 321 184 167 184 205 230 190 196 189 189 197 195 200 198 202 201 197 203 208 215 217 212 221 217 212 245 215 252 236 236 247 243 251 256 248 261 253 254
214 152 251 15 81 289 152 45 72 51 21 330 130 164 168 202 218 191 207 198 189 195 196 195 200 202 205 205 207 213 214 217 223 219 232 230 236 234 244 237 236 245 241 245 253 241 238 254 267
270 273 244 244 225 336 288 108 46 35 27 326 72 179 172 207 212 221 273 214 205 189 198 192 198 204 206 209 209 215 216 221 222 221 224 232 243 247 248 243 241 246 243 245 256 249 249 248 257